This is the latest recevied weather packets stored in our database for station/object DL3SDW-13. If no packets are shown the sender has not sent any weather packets the latest 10 day(s).
| Time | Temp. | Humidity | Pressure | Rain* | Wind** | Luminosity | Snow |
|---|---|---|---|---|---|---|---|
| 1788115543 | 28.33° C | 40% | 1018 hPa | - | - | - | - |
| 1788108087 | 27.78° C | 39% | 1018 hPa | - | - | - | - |
| 1788100630 | 26.67° C | 45% | 1019 hPa | - | - | - | - |
| 1788093174 | 26.67° C | 47% | 1020 hPa | - | - | - | - |
| 1788085718 | 27.22° C | 44% | 1020 hPa | - | - | - | - |
| 1788078261 | 26.67° C | 44% | 1020 hPa | - | - | - | - |
| 1788070805 | 26.11° C | 44% | 1020 hPa | - | - | - | - |
| 1788063348 | 25° C | 45% | 1019 hPa | - | - | - | - |
| 1788055892 | 26.67° C | 42% | 1019 hPa | - | - | - | - |
| 1788048436 | 26.11° C | 40% | 1019 hPa | - | - | - | - |
| 1788040979 | 27.22° C | 38% | 1019 hPa | - | - | - | - |
| 1788033523 | 27.78° C | 38% | 1019 hPa | - | - | - | - |
| 1788026067 | 27.22° C | 41% | 1018 hPa | - | - | - | - |
| 1788018610 | 26.67° C | 40% | 1018 hPa | - | - | - | - |
| 1788011154 | 26.11° C | 42% | 1019 hPa | - | - | - | - |
| 1788003698 | 25.56° C | 45% | 1019 hPa | - | - | - | - |
| 1787996241 | 25.56° C | 43% | 1020 hPa | - | - | - | - |
| 1787988785 | 25.56° C | 45% | 1021 hPa | - | - | - | - |
| 1787981328 | 24.44° C | 48% | 1021 hPa | - | - | - | - |
| 1787973872 | 25.56° C | 47% | 1020 hPa | - | - | - | - |
| 1787966416 | 26.11° C | 47% | 1020 hPa | - | - | - | - |
| 1787958959 | 27.22° C | 45% | 1020 hPa | - | - | - | - |
| 1787951503 | 25.56° C | 46% | 1020 hPa | - | - | - | - |
| 1787944047 | 26.11° C | 43% | 1018 hPa | - | - | - | - |
| 1787936590 | 27.22° C | 46% | 1016 hPa | - | - | - | - |
* Rain since midnight (hover to see other rain measurements)
** Current wind speed in m/s (hover to see current wind gust speed)